Regional Weather Roundup
Issued by NWS

Home | Current Version | Previous Version | Text Only | Print | Product List | Glossary Off
Versions: 1 2 3 4 5 6 7 8 9 10 11 12 13 14 15 16 17 18 19 20 21 22 23 24 25 26 27 28 29 30 31 32 33 34 35 36 37 38 39 40 41 42 43 44 45 46 47 48 49 50

000
ASUS45 KSLC 220010
RWRUT

UTAH REGIONAL WEATHER ROUNDUP
NATIONAL WEATHER SERVICE SALT LAKE CITY UT
500 PM MST SUN DEC 21 2014

UTZ001>011-023>025-220100-

NORTHERN UTAH

CITY           SKY/WX    TMP DP  RH WIND       PRES   REMARKS
BRIGHAM CITY   CLOUDY    48  41  78 CALM      29.90R
HILL AFB       CLOUDY    44  42  92 SW13      29.91S
LOGAN          CLOUDY    45  40  82 W12       29.88S
OGDEN          CLOUDY    46  41  82 SW12      29.90S
PROVO AIRPORT  CLOUDY    41  39  93 VRB3      29.96F
SALT LAKE CITY LGT RAIN  43  39  86 SE12      29.92F
VERNAL         CLOUDY    34  28  79 N6        29.83R WCI  29
WENDOVER       MOCLDY    55  37  50 NW21G31   29.94F
HEBER CITY     MIX PCPN  36  36 100 CALM      29.89F
WEST JORDAN    CLOUDY    41  41 100 SE6       29.94S

$$

UTZ012>022-026-027-220100-

SOUTHERN/CENTRAL UTAH

CITY           SKY/WX    TMP DP  RH WIND       PRES   REMARKS
BLANDING       MOCLDY    36  32  85 CALM      30.04S
BRYCE CANYON   CLOUDY    44  31  60 CALM      30.08R
CEDAR CITY     PTCLDY    49  35  58 S7        30.06R
DELTA          CLOUDY    45  38  76 NE8       30.00R
MILFORD        CLOUDY    53  37  54 S9        30.01R
MOAB/CYNLANDS  CLEAR     40  34  79 N8        29.94R WCI  34
PRICE          CLOUDY    34  29  82 E6        29.92R WCI  29
ST GEORGE      CLOUDY    54  36  50 NW5       30.06S
KANAB          PTCLDY    45  36  70 S3        30.08S

$$

REGIONAL REPORTS     COLORADO/ARIZONA

CITY           SKY/WX    TMP DP  RH WIND       PRES   REMARKS
CRAIG, CO      CLOUDY    39  31  72 W29G36    29.73S WCI  27
GRAND JUNCTION CLOUDY    34  32  92 CALM      29.94R
RIFLE          MIX PCPN  35  30  82 W21G32    29.85F WCI  24
MONTROSE       CLOUDY    34  31  88 CALM      29.93R
CORTEZ         PTCLDY    38  29  70 NE6       29.99R WCI  33
PAGE, AZ       CLOUDY    45  32  60 N5        30.00S
GRAND CANYON   MOCLDY    44  33  65 CALM      30.11S
KINGMAN        PTCLDY    51  36  56 N5        30.08F
FLAGSTAFF      PTCLDY    46  31  55 VRB5      30.09F

$$

REGIONAL REPORTS    NEVADA/IDAHO/WYOMING

CITY           SKY/WX    TMP DP  RH WIND       PRES   REMARKS
LAS VEGAS, NV  MOCLDY    55  38  52 SE5       30.03F
ELY            LGT RAIN  47  39  74 VRB3      30.11F
ELKO           CLOUDY    47  43  86 SW7       30.06R
POCATELLO, ID  MOCLDY    42  38  85 W21G29    29.86R
BURLEY         LGT RAIN  42  38  85 W21G28    29.93R
EVANSTON, WY   LGT RAIN  35  33  92 W15       29.85R WCI  25
ROCK SPRINGS   LGT RAIN  36  32  85 W35G44    29.72R WCI  22
KEMMERER       FLURRIES  34  32  93 W28G41    29.78R WCI  20

$$


USA.gov is the U.S. government's official web portal to all federal, state and local government web resources and services.